Tracking 33744 objects as of 12-Apr-2026
HD Live streaming from Space Station
objects crossing your sky now

COSMOS 1855

Track COSMOS 1855 now!
10-day predictions
COSMOS 1855 is classified as:


NORAD ID: 18116
Int'l Code: 1987-051D
Perigee: 1,453.7 km
Apogee: 1,483.5 km
Inclination: 74.0 °
Period: 115.1 minutes
Semi major axis: 7839 km
RCS: 0.6844 m2 (medium)
Launch date: June 16, 1987
Source: Commonwealth of Independent States (former USSR) (CIS)
Launch site: PLESETSK MISSILE AND SPACE COMPLEX (PKMTR)
Your satellite tracking list
Your tracking list is empty




NASA's NSSDC Master Catalog

Two Line Element Set (TLE):
1 18116U 87051D   26102.48566913 -.00000017  00000-0 -51282-5 0  9994
2 18116  74.0079   5.3891 0019025  51.9210 121.9072 12.50731785772598
Source of the keplerian elements: AFSPC